www.pogodaiklimat.ru

Погода и климат >> Архив погоды >> Канада >> Нунавут >> Кеймбридж-Бей


ПОГОДА в Кеймбридж-Бее

  • Прогноз погоды в Кеймбридж-Бее
  • Монитор погоды в Кеймбридж-Бее

АРХИВ ПОГОДЫ в Кеймбридж-Бее

Время (UTC), дата Ветер
(напр.,м/с)
 
Видим.   Явления Облачность Т
(С)
Тd
(С)
f
(%)
Тe
(С)
Тes
(С)
Комфортность P
(гПа)
Po
(гПа)
Тmin
(С)
Tmax
(С)
R
(мм)
R24
(мм)
S
(см)
00 14.03 СВ 3 н/о н/о -24.9 -28.7 71 -34 -34 опасность
обморожения
1020.9 1018.3 -27.5 -22.2
03 14.03 СВ 2 н/о н/о -24.2 -27.8 72 -31 -31 опасность
обморожения
1022.8 1020.2
06 14.03 СВ 2 н/о н/о -24.5 -27.9 73 -31 -31 опасность
обморожения
1023.9 1021.3 -27.5 -22.2 15
09 14.03 С 1 н/о н/о -23.6 -27.2 72 -27 -27 1025.4 1022.8
12 14.03 СВ 1 н/о н/о -23.7 -27.1 73 -25 -25 1026.3 1023.7 -26.2 -22.2 5
15 14.03 СВ 5 н/о н/о -29.9 -33.3 72 -43 -43 опасность
обморожения
1027.5 1024.9
18 14.03 СВ 5 н/о н/о -30.9 -34.6 70 -44 -44 опасность
обморожения
1027.8 1025.2 -31.0 -23.5
21 14.03 СВ 6 н/о н/о -30.5 -34.3 69 -44 -44 опасность
обморожения
1028.3 1025.7
00 15.03 СВ 4 н/о н/о -31.9 -35.4 71 -43 -43 опасность
обморожения
1028.7 1026.1 -32.0 -23.7
03 15.03 СВ 4 н/о {осадки} н/о -35.0 -38.2 72 -47 -47 опасность
обморожения
1029.1 1026.4 0.4
06 15.03 СВ 3 н/о {осадки} н/о -36.4 -39.7 71 -46 -46 опасность
обморожения
1029.0 1026.3 -36.6 -23.5 0.6
09 15.03 СВ 3 н/о н/о -37.1 -40.5 70 -48 -48 опасность
обморожения
1029.2 1026.5
12 15.03 СВ 3 н/о н/о -37.2 -40.6 70 -47 -47 опасность
обморожения
1029.4 1026.7 -37.5 -23.5 5
15 15.03 В 2 н/о н/о -37.2 -40.7 70 -46 -46 опасность
обморожения
1029.1 1026.4 0.3
18 15.03 СВ 3 н/о {осадки} н/о -33.3 -37.0 69 -43 -43 опасность
обморожения
1029.3 1026.6 -38.0 -33.3 1
21 15.03 В 3 н/о н/о -30.0 -34.3 66 -39 -39 опасность
обморожения
1028.8 1026.1
00 16.03 В 3 н/о н/о -31.1 -34.7 70 -41 -41 опасность
обморожения
1028.5 1025.8 -38.0 -29.6
03 16.03 В 2 н/о н/о -33.9 -37.1 73 -41 -41 опасность
обморожения
1027.6 1024.9
06 16.03 В 3 н/о н/о -32.1 -35.3 73 -41 -41 опасность
обморожения
1026.6 1023.9 -38.0 -29.6 0.2
09 16.03 ЮВ 4 н/о н/о -30.8 -33.8 75 -42 -42 опасность
обморожения
1024.9 1022.3 0.5
12 16.03 В 8 н/о {осадки} н/о -30.6 -33.6 75 -46 -46 опасность
обморожения
1022.8 1020.2 -34.0 -29.6 0.9 5
15 16.03 ЮВ 8 н/о н/о -27.9 -30.9 75 -43 -43 опасность
обморожения
1021.1 1018.5 0.2
18 16.03 ЮВ 8 н/о {осадки} н/о -25.5 -28.3 77 -40 -40 опасность
обморожения
1019.5 1016.9 -34.0 -25.5 0.2
21 16.03 ЮВ 7 н/о {осадки} н/о -23.7 -26.4 78 -37 -37 опасность
обморожения
1018.3 1015.7 0.2
00 17.03 В 7 н/о {осадки} н/о -22.6 -25.1 80 -35 -35 опасность
обморожения
1017.8 1015.2 -32.3 -22.6 0.2
03 17.03 В 7 н/о н/о -23.3 -25.8 80 -36 -36 опасность
обморожения
1017.2 1014.6
06 17.03 СВ 8 н/о н/о -27.3 -30.1 77 -42 -42 опасность
обморожения
1017.7 1015.1 -32.3 -22.4 16
09 17.03 СВ 7 н/о н/о -29.9 -32.9 75 -44 -44 опасность
обморожения
1018.6 1016.0
12 17.03 СВ 9 н/о н/о -31.7 -34.8 74 -49 -49 опасность
обморожения
1019.9 1017.3 -31.7 -22.4 5
15 17.03 СВ 7 н/о н/о -31.9 -35.2 72 -47 -47 опасность
обморожения
1020.7 1018.1
18 17.03 СВ 7 н/о н/о -29.6 -32.9 73 -44 -44 опасность
обморожения
1022.0 1019.4 -32.3 -27.3
21 17.03 СВ 6 н/о н/о -27.0 -30.1 75 -40 -40 опасность
обморожения
1022.8 1020.2 0.3
00 18.03 В 5 н/о {осадки} н/о -27.9 -30.8 76 -39 -39 опасность
обморожения
1023.4 1020.8 -32.3 -26.9 0.3
03 18.03 В 5 н/о н/о -29.9 -32.9 75 -42 -42 опасность
обморожения
1023.0 1020.4
06 18.03 В 4 н/о {осадки} н/о -29.8 -32.7 76 -41 -41 опасность
обморожения
1021.5 1018.9 -32.3 -26.9 0.3 12
09 18.03 ЮВ 6 н/о {осадки} н/о -27.2 -30.0 77 -40 -40 опасность
обморожения
1018.5 1015.9 0.4
12 18.03 В 5 н/о {осадки} н/о -26.7 -29.5 77 -39 -39 опасность
обморожения
1014.7 1012.1 -30.5 -26.9 0.4 5
15 18.03 ЮВ 9 н/о н/о -24.7 -27.4 78 -39 -39 опасность
обморожения
1010.5 1007.9
18 18.03 ЮВ 8 н/о н/о -21.5 -23.9 81 -35 -35 опасность
обморожения
1007.1 1004.5 -30.5 -21.5
21 18.03 В 9 н/о н/о -19.3 -21.6 82 -32 -32 опасность
обморожения
1005.3 1002.8 0.2
00 19.03 В 11 н/о н/о -20.7 -23.0 82 -35 -35 опасность
обморожения
1006.8 1004.3 -29.7 -19.2 0.2
03 19.03 В 10 н/о н/о -23.5 -26.0 80 -38 -38 опасность
обморожения
1009.1 1006.5
06 19.03 СВ 8 н/о н/о -26.7 -29.5 77 -41 -41 опасность
обморожения
1012.8 1010.2 -29.7 -19.2 1
09 19.03 СВ 7 н/о н/о -29.2 -32.1 76 -44 -44 опасность
обморожения
1015.6 1013.0
12 19.03 СВ 6 н/о н/о -32.7 -35.8 74 -47 -47 опасность
обморожения
1016.9 1014.3 -32.7 -19.2 5
15 19.03 В 4 н/о н/о -30.9 -34.0 74 -42 -42 опасность
обморожения
1017.5 1014.9
18 19.03 ЮВ 5 н/о {осадки} н/о -25.9 -28.8 77 -38 -38 опасность
обморожения
1016.1 1013.5 -32.8 -25.9 0.4
21 19.03 ЮВ 9 н/о н/о -21.5 -24.0 80 -35 -35 опасность
обморожения
1012.1 1009.5
00 20.03 ЮВ 9 н/о н/о -19.6 -21.8 83 -32 -32 опасность
обморожения
1007.7 1005.1 -32.8 -19.6
03 20.03 ЮВ 6 н/о н/о -19.2 -21.3 83 -30 -30 1004.4 1001.9
06 20.03 СВ 1 н/о н/о -20.6 -22.8 82 -21 -21 1001.2 998.7 -32.8 -18.5 23
09 20.03 СВ 4 н/о н/о -19.5 -21.6 83 -28 -28 1000.5 998.0
12 20.03 С 4 н/о {осадки} н/о -18.4 -20.4 84 -26 -26 999.9 997.4 -21.6 -18.5 0.4 5
15 20.03 СЗ 3 н/о {осадки} н/о -17.6 -19.6 84 -25 -25 1001.2 998.7 0.4
18 20.03 СЗ 4 н/о {осадки} н/о -16.7 -18.7 84 -25 -25 1002.6 1000.1 -25.9 -16.6 0.7

 

Местоположение метеостанции Кеймбридж-Бей (Нунавут, Канада): широта 69.10 долгота -105.10 высота над уровнем моря 19 м.

В архиве по умолчанию представлена погода в Кеймбридж-Бее за последнюю неделю. Архивные данные за месяц целиком и за предыдущие месяцы, начиная с января 2011 года, Вы можете получить, выбрав интересующий диапазон дат из раскрывающегося списка и нажав кнопку "Ввод!".


*Определитесь, кто Вы:
робот инопланетянин человек

Внимание! Время в таблицах - всемирное. Для получения местного времени необходимо прибавить поправку, которая равна -7 ч.

Смотрите также архив погоды в соседних городах и на ближайших метеорологических станциях:

Погода на Мысе Пил-Вест (Нунавут, Канада) (108 км)
Погода на Острове Хат (Нунавут, Канада) (223 км)
Погода в Джойа Хейвен (Нунавут, Канада) (374 км)
Погода в Куглуктуке (Нунавут, Канада) (432 км)
Погода в Куглуктуке (Северо-Западные территории, Канада) (432 км)
Погода в Люпине (Нунавут, Канада) (452 км)
Погода в Саскатуне (Саскачеван, Канада) (452 км)
Погода в Талойоаке (Нунавут, Канада) (454 км)
Погода на Озере Робертсон (Нунавут, Канада) (460 км)
Погода в Шеперд-Бее (Нунавут, Канада) (466 км)

Пояснения к столбцам:

Ветер - указаны скорость ветра в м/с - средняя за 10 мин, порывы в срок и между сроками (в фигурных скобках) и направление, откуда дует ветер: С - северный, СВ - северо-восточный, В - восточный, ЮВ - юго-восточный, Ю - южный, ЮЗ - юго-западный, З - западный, СЗ - северо-западный.
Видимость - горизонтальная дальность видимости в метрах или километрах. При видимости от 1 до 10 км при отсутствии осадков обычно наблюдается дымка, при ухудшении видимости до 1 км и менее - туман. В сухую погоду видимость может ухудшаться дымом, пылью или мглою.
Явления - указаны атмосферные явления, наблюдавшиеся в срок или в последний час перед сроком; фигурными скобками обозначены явления, наблюдавшиеся между сроками (за 1-3 часа до срока); квадратными скобками обозначены град или гололедные отложения с указанием их диаметра в мм.
Облачность - указаны через наклонную черту общая и нижняя облачность в баллах и высота нижней границы облаков в метрах; квадратными скобками обозначены формы облаков: Ci - перистые, Cs - перисто-слоистые, Cc - перисто-кучевые, Ac - высококучевые, As - высокослоистые, Sc - слоисто-кучевые, Ns - слоисто-дождевые, Cu - кучевые, Cb - кучево-дождевые. Подробнее классификацию облаков см. в Атласе облаков (PDF).
T - Температура воздуха - температура, измеренная на высоте 2 м над землей.
Td - Температура точки росы - температура, при понижении до которой содержащийся в воздухе водяной пар достигнет насыщения.
f - Относительная влажность воздуха - влажноcть воздуха, измеренная на высоте 2 м над землей.
Te - Эффективная температура - температура, которую ощущает одетый по сезону человек в тени. Характеристика душности погоды. При расчете учитывается влияние влажности воздуха и скорости ветра на теплоощущения человека.
Tes - Эффективная температура на солнце - температура, которую ощущает человек, с поправкой на солнечный нагрев. Характеристика знойности погоды. Зависит от высоты солнца над горизонтом, облачности и скорости ветра. Ночью, в пасмурную погоду, а также при ветре 12 м/с и более поправка равна нулю.
P - Атмосферное давление - приведенное к уровню моря атмосферное давление.
Po - Атмосферное давление - измеренное на уровне метеостанции атмосферное давление.
Tmin - Минимальная температура - минимум температуры воздуха на высоте 2 м над землей.
Tmax - Максимальная температура - максимум температуры воздуха на высоте 2 м над землей.
R - Количество осадков - Количество выпавших осадков за период времени, мм. При наведении курсора мыши на число - период времени, за который выпало указанное количество осадков.
R24 - Количество осадков - Количество выпавших осадков за 24 часа, мм.
S - Снежный покров - Высота снежного покрова, см. При наведении курсора мыши на число - состояние снежного покрова и степень покрытия местности в баллах.